Location: Clay (historical)
(35.1476°N, 89.8179°W)
Time: 00:03:43
(UTC+00:00)

DELTA 2 R/B (1) - Pass Details

Date: 18 February 2026
Orbit: 788 x 799 km, 39.6° (Epoch: 7 March)

Event Time Altitude Azimuth Distance (km) Brightness Sun altitude
Exits shadow 12:11:07 - 266° (W) 2,551 5.6 -7.0°
Reaches altitude 10° 12:11:41 10° 267° (W) 2,346 5.4 -6.9°
Maximum altitude 12:17:10 63° 348° (NNW) 881 3.8 -5.8°
Drops below altitude 10° 12:22:41 10° 70° (ENE) 2,357 7.1 -4.7°
Sets 12:25:12 0° 73° (ENE) 3,289 8.1 -4.2°
